Weather History for Tel Aviv, Israel

Change the Weather History Date:

Friday, April 4, 2014

  Actual Average Record
Temperature  
Mean Temperature 63 °F -  
Max Temperature 71 °F 74 °F 98 °F (2003)
Min Temperature 55 °F 57 °F 48 °F (1997)
Degree Days  
Heating Degree Days 2    
Growing Degree Days 13 (Base 50)    
Moisture  
Dew Point 52 °F    
Average Humidity 67    
Maximum Humidity 82    
Minimum Humidity 41    
Precipitation  
Precipitation 0.00 in - - ()
Sea Level Pressure  
Sea Level Pressure 30.10 in    
Wind  
Wind Speed 5 mph ()    
Max Wind Speed 13 mph    
Max Gust Speed -    
Visibility 6.2 miles    
Events      
Averages and records for this station are not official NWS values.
T = Trace of Precipitation, MM = Missing Value Source: Averaged Metar Reports

Daily Weather History Graph

Daily Weather History Graph

Search for Another Location

Airport:

Trip Planner

Search our weather history database for the weather conditions in past years. The results will help you decide how hot, cold, wet, or windy it might be!

Date:

Astronomy

Apr. 04, 2014 Rise Set
Actual Time 6:25 AM IDT 7:02 PM IDT
Civil Twilight 6:00 AM IDT 7:26 PM IDT
Nautical Twilight 5:31 AM IDT 7:55 PM IDT
Astronomical Twilight 5:02 AM IDT 8:25 PM IDT
Moon 9:37 AM IDT (4/4) 11:43 PM IDT (4/4)
Length of Visible Light 13h 25m
Length of Day
12h 36m
Waxing Crescent, 23% of the Moon is Illuminated
Apr 4
Waxing Crescent
Apr 7
First Quarter
Apr 15
Full
Apr 22
Last Quarter
Apr 29
New

Hourly Weather History & Observations

Time (IDT) Temp. Dew Point Humidity Pressure Visibility Wind Dir Wind Speed Gust Speed Precip Events Conditions
12:00 AM 59 °F 51 °F 67% 30.09 in 6 mi SSE 6.9 mph - -   Scattered Clouds
12:20 AM 59.0 °F 50.0 °F 72% 30.09 in 6.2 mi SE 4.6 mph - N/A   Partly Cloudy
12:50 AM 59.0 °F 50.0 °F 72% 30.06 in 6.2 mi SE 5.8 mph - N/A   Partly Cloudy
1:20 AM 57.2 °F 50.0 °F 77% 30.06 in 6.2 mi Variable 3.5 mph - N/A   Partly Cloudy
1:50 AM 57.2 °F 50.0 °F 77% 30.06 in 6.2 mi Variable 2.3 mph - N/A   Scattered Clouds
2:20 AM 55.4 °F 50.0 °F 82% 30.06 in 6.2 mi Variable 3.5 mph - N/A   Partly Cloudy
2:50 AM 55.4 °F 50.0 °F 82% 30.06 in 6.2 mi Variable 3.5 mph - N/A   Partly Cloudy
3:00 AM 55 °F 49 °F 76% 30.08 in 6 mi 3.5 mph - -   Scattered Clouds
3:20 AM 55.4 °F 50.0 °F 82% 30.06 in 6.2 mi Variable 3.5 mph - N/A   Partly Cloudy
3:50 AM 55.4 °F 50.0 °F 82% 30.06 in 6.2 mi Variable 3.5 mph - N/A   Scattered Clouds
4:20 AM 55.4 °F 50.0 °F 82% 30.06 in 6.2 mi SE 4.6 mph - N/A   Mostly Cloudy
4:50 AM 55.4 °F 50.0 °F 82% 30.06 in 6.2 mi ESE 4.6 mph - N/A   Scattered Clouds
5:20 AM 55.4 °F 50.0 °F 82% 30.06 in 6.2 mi SSE 4.6 mph - N/A   Partly Cloudy
5:50 AM 55.4 °F 50.0 °F 82% 30.06 in 6.2 mi Variable 3.5 mph - N/A   Partly Cloudy
6:50 AM 55.4 °F 50.0 °F 82% 30.09 in 6.2 mi Variable 2.3 mph - N/A   Partly Cloudy
7:20 AM 55.4 °F 50.0 °F 82% 30.09 in 6.2 mi Variable 2.3 mph - N/A   Partly Cloudy
7:50 AM 59.0 °F 50.0 °F 72% 30.09 in 6.2 mi Variable 2.3 mph - N/A   Partly Cloudy
8:20 AM 60.8 °F 51.8 °F 72% 30.09 in - SE 4.6 mph - N/A   Clear
8:50 AM 62.6 °F 53.6 °F 72% 30.12 in 6.2 mi SSE 5.8 mph - N/A   Partly Cloudy
9:00 AM 63 °F 53 °F 61% 30.13 in 6 mi SSE 5.8 mph - -  
9:20 AM 64.4 °F 53.6 °F 68% 30.12 in 6.2 mi South 4.6 mph - N/A   Mostly Cloudy
9:50 AM 66.2 °F 51.8 °F 60% 30.12 in 6.2 mi South 5.8 mph - N/A   Scattered Clouds
10:20 AM 66.2 °F 51.8 °F 60% 30.12 in 6.2 mi Variable 3.5 mph - N/A   Scattered Clouds
10:50 AM 69.8 °F 51.8 °F 53% 30.12 in 6.2 mi South 4.6 mph - N/A   Scattered Clouds
11:20 AM 69.8 °F 50.0 °F 49% 30.12 in 6.2 mi SSW 4.6 mph - N/A   Scattered Clouds
11:50 AM 71.6 °F 51.8 °F 50% 30.12 in 6.2 mi Variable 2.3 mph - N/A   Scattered Clouds
12:00 PM 70 °F 51 °F 41% 30.14 in 6 mi 2.3 mph - -   Partly Cloudy
12:20 PM 69.8 °F 53.6 °F 56% 30.12 in 6.2 mi West 9.2 mph - N/A   Scattered Clouds
12:50 PM 69.8 °F 53.6 °F 56% 30.12 in 6.2 mi West 10.4 mph - N/A   Scattered Clouds
1:20 PM 69.8 °F 53.6 °F 56% 30.12 in 6.2 mi WNW 10.4 mph - N/A   Partly Cloudy
1:50 PM 69.8 °F 53.6 °F 56% 30.09 in 6.2 mi WNW 11.5 mph - N/A   Partly Cloudy
2:20 PM 69.8 °F 55.4 °F 60% 30.09 in 6.2 mi WNW 12.7 mph - N/A   Partly Cloudy
2:50 PM 69.8 °F 55.4 °F 60% 30.09 in 6.2 mi WNW 10.4 mph - N/A   Partly Cloudy
3:00 PM 70 °F 54 °F 47% 30.10 in 6 mi WNW 10.4 mph - -   Scattered Clouds
3:20 PM 69.8 °F 53.6 °F 56% 30.09 in 6.2 mi WNW 12.7 mph - N/A   Partly Cloudy
3:50 PM 69.8 °F 53.6 °F 56% 30.09 in 6.2 mi WNW 12.7 mph - N/A   Partly Cloudy
4:20 PM 69.8 °F 53.6 °F 56% 30.09 in 6.2 mi WNW 11.5 mph - N/A   Partly Cloudy
4:50 PM 69.8 °F 53.6 °F 56% 30.09 in 6.2 mi WNW 11.5 mph - N/A   Partly Cloudy
5:20 PM 69.8 °F 51.8 °F 53% 30.09 in - NW 10.4 mph - N/A   Clear
5:50 PM 68.0 °F 53.6 °F 60% 30.09 in - NNW 10.4 mph - N/A   Clear
6:00 PM 68 °F 53 °F 48% 30.11 in 6 mi NNW 10.4 mph - -  
6:20 PM 68.0 °F 53.6 °F 60% 30.09 in - NNW 9.2 mph - N/A   Clear
6:50 PM 66.2 °F 53.6 °F 64% 30.09 in - NNW 8.1 mph - N/A   Clear
7:20 PM 64.4 °F 53.6 °F 68% 30.12 in - North 8.1 mph - N/A   Clear
7:50 PM 64.4 °F 53.6 °F 68% 30.12 in - North 5.8 mph - N/A   Clear
8:20 PM 64.4 °F 55.4 °F 73% 30.15 in - North 4.6 mph - N/A   Clear
8:50 PM 62.6 °F 53.6 °F 72% 30.15 in - NNW 4.6 mph - N/A   Clear
9:00 PM 63 °F 54 °F 66% 30.16 in 6 mi NNW 4.6 mph - -  
9:20 PM 62.6 °F 55.4 °F 77% 30.15 in - Variable 3.5 mph - N/A   Clear
9:50 PM 62.6 °F 55.4 °F 77% 30.15 in - Variable 3.5 mph - N/A   Clear
10:20 PM 60.8 °F 53.6 °F 77% 30.15 in - Variable 2.3 mph - N/A   Clear
10:50 PM 60.8 °F 53.6 °F 77% 30.15 in - NNE 5.8 mph - N/A   Clear
11:20 PM 60.8 °F 53.6 °F 77% 30.15 in - North 4.6 mph - N/A   Clear
11:50 PM 60.8 °F 53.6 °F 77% 30.15 in - NE 5.8 mph - N/A   Clear